GW1127 Weather Reports


time (UTC)temp
C
wind
direction
speed
KPH
gust
KPH
rain 1hr
cm
rain 24hr
cm
rain mn
cm
humidity
%
barometer
mb
20260510202219 30 315 3.2 3.2 0.00 0.00 0.00 33 1009.1
20260510201220 29 0.0 0.0 0.00 0.00 0.00 32 1009.1
20260510200217 29 314 3.2 3.2 0.00 0.00 0.00 33 1009.2
20260510195219 29 25 1.6 3.2 0.00 0.00 0.00 33 1009.3
20260510194258 28 318 3.2 6.4 0.00 0.00 0.00 32 1009.3
20260510193218 28 161 3.2 6.4 0.00 0.00 0.00 32 1009.5
20260510192218 28 219 1.6 3.2 0.00 0.00 0.00 34 1009.6
20260510191239 28 280 3.2 8.0 0.00 0.00 0.00 34 1009.7
20260510190219 28 10 4.8 6.4 0.00 0.00 0.00 34 1009.9
20260510185217 28 174 1.6 8.0 0.00 0.00 0.00 33 1010.0
20260510184219 28 107 3.2 4.8 0.00 0.00 0.00 34 1010.0
20260510183239 28 3 1.6 3.2 0.00 0.00 0.00 35 1010.1
20260510182241 28 22 1.6 4.8 0.00 0.00 0.00 35 1010.3
20260510181241 27 300 1.6 3.2 0.00 0.00 0.00 38 1010.3
20260510180220 27 67 1.6 1.6 0.00 0.00 0.00 36 1010.4
20260510175217 27 327 3.2 4.8 0.00 0.00 0.00 36 1010.5
20260510174217 27 156 1.6 3.2 0.00 0.00 0.00 34 1010.6
20260510173240 27 71 1.6 3.2 0.00 0.00 0.00 36 1010.6
20260510172221 26 359 3.2 6.4 0.00 0.00 0.00 36 1010.6
20260510171218 26 276 8.0 9.7 0.00 0.00 0.00 36 1010.6
20260510170218 27 277 6.4 8.0 0.00 0.00 0.00 36 1010.6
20260510165217 26 309 1.6 4.8 0.00 0.00 0.00 33 1010.7
20260510164218 26 299 4.8 8.0 0.00 0.00 0.00 37 1010.8
20260510163238 26 275 4.8 8.0 0.00 0.00 0.00 36 1010.9
20260510162218 26 352 1.6 4.8 0.00 0.00 0.00 37 1011.0
20260510161238 26 308 3.2 6.4 0.00 0.00 0.00 36 1010.9
20260510160219 26 279 4.8 6.4 0.00 0.00 0.00 36 1011.1
20260510155219 25 316 3.2 9.7 0.00 0.00 0.00 35 1011.2
20260510154219 25 329 0.0 1.6 0.00 0.00 0.00 40 1011.3
20260510153219 25 358 3.2 8.0 0.00 0.00 0.00 46 1011.5
20260510152251 24 352 0.0 1.6 0.00 0.00 0.00 48 1011.5
20260510151216 24 337 1.6 1.6 0.00 0.00 0.00 50 1011.3
20260510150231 23 5 1.6 3.2 0.00 0.00 0.00 49 1011.3
20260510145252 23 267 1.6 3.2 0.00 0.00 0.00 56 1011.3
20260510144218 22 323 1.6 1.6 0.00 0.00 0.00 57 1011.3
20260510143232 22 278 4.8 6.4 0.00 0.00 0.00 62 1011.3
20260510142253 22 270 3.2 6.4 0.00 0.00 0.00 65 1011.3
20260510141217 22 302 3.2 3.2 0.00 0.00 0.00 68 1011.3
20260510140217 21 0.0 0.0 0.00 0.00 0.00 71 1011.4
20260510135233 21 341 3.2 3.2 0.00 0.00 0.00 71 1011.5
20260510134218 20 275 3.2 6.4 0.00 0.00 0.00 73 1011.5
20260510133218 20 279 4.8 6.4 0.00 0.00 0.00 75 1011.5
20260510132217 19 282 3.2 3.2 0.00 0.00 0.00 78 1011.6
20260510131217 18 312 3.2 4.8 0.00 0.00 0.00 82 1011.7
20260510130217 17 304 1.6 1.6 0.00 0.00 0.00 90 1011.7
20260510125217 17 0.0 0.0 0.00 0.00 0.00 94 1011.6
20260510124219 16 295 0.0 1.6 0.00 0.00 0.00 96 1011.5
20260510123219 16 0.0 0.0 0.00 0.00 0.00 97 1011.5
20260510122240 16 0.0 0.0 0.00 0.00 0.00 97 1011.4
20260510121218 16 0.0 0.0 0.00 0.00 0.00 97 1011.2
20260510120217 15 0.0 0.0 0.00 0.00 0.00 97 1011.1
20260510115218 15 0.0 0.0 0.00 0.00 0.00 97 1011.0
20260510114218 15 0.0 0.0 0.00 0.00 0.00 97 1010.9
20260510113218 15 0.0 0.0 0.00 0.00 0.00 97 1010.7
20260510112218 15 352 0.0 0.0 0.00 0.00 0.00 97 1010.7
20260510111238 14 0.0 0.0 0.00 0.00 0.00 97 1010.4
20260510110218 14 0.0 0.0 0.00 0.00 0.00 97 1010.3
20260510105218 14 0.0 0.0 0.00 0.00 0.00 97 1010.1
20260510104218 14 0.0 0.0 0.00 0.00 0.00 97 1010.0
20260510103219 14 0.0 0.0 0.00 0.00 0.00 97 1009.7
20260510102219 14 0.0 0.0 0.00 0.00 0.00 97 1009.4
20260510101239 14 0.0 0.0 0.00 0.00 0.00 97 1009.3
20260510100220 14 0.0 0.0 0.00 0.00 0.00 97 1009.3
20260510095219 14 0.0 0.0 0.00 0.00 0.00 97 1009.0
20260510094220 -17 0.0 0.0 0.00 0.00 0.00
20260510093237 15 0.0 0.0 0.00 0.00 0.00 97 1008.9
20260510092218 15 0.0 0.0 0.00 0.00 0.00 97 1008.9
20260510091217 15 0.0 0.0 0.00 0.00 0.00 97 1008.7
20260510090220 15 53 0.0 1.6 0.00 0.00 0.00 97 1008.7
20260510085240 15 0.0 0.0 0.00 0.00 0.00 97 1008.6
20260510084218 15 0.0 0.0 0.00 0.00 0.00 97 1008.4
20260510083218 15 0.0 0.0 0.00 0.00 0.00 97 1008.3
20260510082219 15 0.0 0.0 0.00 0.00 0.00 97 1008.3
20260510081219 15 0.0 0.0 0.00 0.00 0.00 97 1008.3
20260510080216 15 0.0 0.0 0.00 0.00 0.00 97 1008.4
20260510075219 15 0.0 0.0 0.00 0.00 0.00 97 1008.3
20260510074219 15 0.0 0.0 0.00 0.00 0.00 97 1008.1
20260510073219 15 0.0 0.0 0.00 0.00 0.00 97 1008.0
20260510072219 15 0.0 0.0 0.00 0.00 0.00 97 1008.0
20260510071219 15 0.0 0.0 0.00 0.00 0.00 97 1008.1
20260510070216 15 0.0 0.0 0.00 0.00 0.00 96 1008.2
20260510065240 15 0.0 0.0 0.00 0.00 0.00 96 1008.1
20260510064241 15 0.0 0.0 0.00 0.00 0.00 96 1008.1
20260510063220 15 0.0 0.0 0.00 0.00 0.00 95 1007.9
20260510062238 15 0.0 0.0 0.00 0.00 0.00 95 1007.7
20260510061218 15 0.0 0.0 0.00 0.00 0.00 95 1007.9
20260510060220 15 0.0 0.0 0.00 0.00 0.00 95 1008.1
20260510055226 15 0.0 0.0 0.00 0.00 0.00 94 1008.2
20260510054226 15 0.0 0.0 0.00 0.00 0.00 94 1008.2
20260510053219 15 0.0 0.0 0.00 0.00 0.00 94 1008.3
20260510052220 15 0.0 0.0 0.00 0.00 0.00 94 1008.5
20260510051219 15 0.0 0.0 0.00 0.00 0.00 94 1008.5
20260510050220 15 0.0 0.0 0.00 0.00 0.00 94 1008.4
20260510045219 15 0.0 0.0 0.00 0.00 0.00 94 1008.5
20260510044219 15 0.0 0.0 0.00 0.00 0.00 94 1008.7
20260510043219 15 0.0 0.0 0.00 0.00 0.00 94 1008.5
20260510042220 15 0.0 0.0 0.00 0.00 0.00 94 1008.4
20260510041219 15 0.0 0.0 0.00 0.00 0.00 94 1008.4
20260510040220 15 0.0 0.0 0.00 0.00 0.00 94 1008.3
20260510035221 15 0.0 0.0 0.00 0.00 0.00 93 1008.2
20260510034217 16 0.0 0.0 0.00 0.00 0.00 93 1008.2
20260510033217 16 0.0 0.0 0.00 0.00 0.00 93 1008.2
20260510032218 16 0.0 0.0 0.00 0.00 0.00 93 1008.1
20260510031220 16 0.0 0.0 0.00 0.00 0.00 93 1008.0
20260510030217 16 0.0 0.0 0.00 0.00 0.00 93 1007.9
20260510025238 16 0.0 0.0 0.00 0.00 0.00 93 1007.9
20260510024238 16 0.0 0.0 0.00 0.00 0.00 92 1007.9
20260510023218 16 0.0 0.0 0.00 0.00 0.00 92 1007.8
20260510022249 -17 0.0 0.0 0.00 0.00 0.00
20260510021118 16 0.0 0.0 0.00 0.00 0.00 91 1007.7
20260510020116 16 0.0 0.0 0.00 0.00 0.00 91 1007.6
20260510015119 16 0.0 0.0 0.00 0.00 0.00 90 1007.5
20260510014120 17 0.0 0.0 0.00 0.00 0.00 90 1007.4
20260510013119 17 0.0 0.0 0.00 0.00 0.00 89 1007.1
20260510012119 17 0.0 0.0 0.00 0.00 0.00 88 1006.8
20260510011116 18 0.0 0.0 0.00 0.00 0.00 87 1006.7
20260510010117 18 0.0 0.0 0.00 0.00 0.00 85 1006.6
20260510005117 19 0.0 0.0 0.00 0.00 0.00 84 1006.6
20260510004120 20 0.0 0.0 0.00 0.00 0.00 81 1006.5
20260510003140 20 0.0 0.0 0.00 0.00 0.00 80 1006.5
20260510002137 20 0.0 0.0 0.00 0.00 0.00 78 1006.6
20260510001117 21 0.0 0.0 0.00 0.00 0.00 77 1006.5
20260510000158 21 229 0.0 1.6 0.00 0.00 0.00 76 1006.3
20260509235119 21 117 0.0 4.8 0.00 0.00 0.00 75 1006.3
20260509234118 21 0.0 0.0 0.00 0.00 0.00 73 1005.9
20260509233157 21 0.0 0.0 0.00 0.00 0.00 72 1005.9
20260509232118 22 0 1.6 4.8 0.00 0.00 0.00 72 1005.9
20260509231119 22 275 1.6 3.2 0.00 0.00 0.00 70 1005.7
20260509230119 22 0.0 0.0 0.00 0.00 0.00 70 1005.7
20260509225119 22 323 1.6 3.2 0.00 0.00 0.00 69 1005.5
20260509224116 22 314 1.6 3.2 0.00 0.00 0.00 69 1005.6
20260509223116 22 11 1.6 3.2 0.00 0.00 0.00 69 1005.7
20260509222116 22 128 3.2 6.4 0.00 0.00 0.00 69 1005.7
20260509221120 22 157 3.2 4.8 0.00 0.00 0.00 69 1005.7
20260509220120 22 128 4.8 8.0 0.00 0.00 0.00 68 1005.7
20260509215117 22 292 4.8 6.4 0.00 0.00 0.00 69 1005.7
20260509214117 22 177 0.0 1.6 0.00 0.00 0.00 70 1005.6
20260509213118 22 118 3.2 6.4 0.00 0.00 0.00 70 1005.6
20260509212117 22 91 1.6 3.2 0.00 0.00 0.00 68 1005.4
20260509211118 22 287 1.6 4.8 0.00 0.00 0.00 68 1005.4
20260509210158 22 7 1.6 4.8 0.00 0.00 0.00 69 1005.4
20260509205118 22 138 1.6 6.4 0.00 0.00 0.00 69 1005.5
20260509204118 21 186 1.6 3.2 0.00 0.00 0.00 70 1005.5
20260509203118 21 133 1.6 4.8 0.00 0.00 0.00 69 1005.5